Terminal Aerodrome Forecast
Issued by NWS

Home | Current Version | Previous Version | Graphics & Text | Print | Product List | Glossary On
Versions: 1 2 3 4 5 6 7 8 9 10 11 12 13 14 15 16 17 18 19 20 21 22
899
FTUS43 KBIS 011741
TAFMOT
TAF
KMOT 011741Z 0118/0218 33004KT P6SM SCT007 OVC019
     FM020000 VRB03KT P6SM OVC008=

USA.gov is the U.S. government's official web portal to all federal, state and local government web resources and services.